Latest Coastal Weather Observations for Creal Reef

IDQ60701

Issued at 4:32 pm EST Wednesday 8 February 2023 (issued every 10 minutes, with the page automatically refreshed every 10 minutes)

About coastal observations | Map of coastal stations | Coastal observations for QLD | Marine services | Other Formats
Station Details ID: 200736 Name: CREAL REEF Lat: -20.53 Lon: 150.38 Height: 1.7 m
Data from the previous 72 hours. | See also: Recent months for locations in Queensland
Date/Time
EST
Wind Sea
Height
m
Swell Vis
km
Cloud Weather Temp
°C
Press
MSL
hPa
Rain since
9am
mm
Dir  Spd
kts
Gust
kts
Height
m
Period
s
Dir
08/03:00am SE 25 30 - - - - - - - 26.8 1004.0 -
08/02:30am SE 26 31 - - - - - - - 27.5 1004.1 -
08/02:00am ESE 27 31 - - - - - - - 27.7 1004.6 -
08/01:30am ESE 26 32 - - - - - - - 27.6 1004.8 -
08/01:00am SE 27 31 - - - - - - - 27.4 1005.3 -
08/12:30am SE 27 35 - - - - - - - 25.9 1005.8 -
08/12:00am SE 26 30 - - - - - - - 27.3 1006.1 -
 
Date/Time
EST
Wind Sea
Height
m
Swell Vis
km
Cloud Weather Temp
°C
Press
MSL
hPa
Rain since
9am
mm
Dir  Spd
kts
Gust
kts
Height
m
Period
s
Dir
07/11:36pm SE 28 39 - - - - - - - 26.8 1006.2 -
07/11:30pm SE 27 32 - - - - - - - 27.2 1006.3 -
07/11:20pm SE 27 37 - - - - - - - 26.9 1006.4 -
07/11:00pm ESE 29 34 - - - - - - - 27.6 1006.8 -
07/10:34pm ESE 27 37 - - - - - - - 27.4 1007.0 -
07/10:30pm SE 27 32 - - - - - - - 27.9 1007.0 -
07/10:11pm ESE 25 36 - - - - - - - 27.9 1007.0 -
07/10:00pm ESE 26 31 - - - - - - - 27.5 1007.0 -
07/09:30pm SE 27 30 - - - - - - - 28.2 1006.9 -
07/09:00pm SE 29 33 - - - - - - - 27.8 1006.8 -
07/08:30pm ESE 24 29 - - - - - - - 27.5 1006.5 -
07/08:25pm ESE 26 36 - - - - - - - 27.3 1006.6 -
07/08:00pm ESE 27 32 - - - - - - - 27.7 1006.5 -
07/07:30pm ESE 27 32 - - - - - - - 28.2 1006.0 -
07/07:00pm ESE 26 30 - - - - - - - 28.1 1005.9 -
07/06:30pm SE 25 30 - - - - - - - 28.5 1005.7 -
07/06:00pm SE 23 27 - - - - - - - 28.4 1005.1 -
07/05:30pm SE 24 27 - - - - - - - 28.6 1004.9 -
07/05:00pm SE 23 27 - - - - - - - 28.6 1004.8 -
07/04:30pm SE 22 26 - - - - - - - 28.3 1004.9 -
07/04:00pm SE 23 27 - - - - - - - 28.5 1004.9 -
07/03:30pm SE 20 23 - - - - - - - 28.6 1005.1 -
07/03:00pm SE 22 25 - - - - - - - 28.6 1005.1 -
07/02:30pm SE 22 25 - - - - - - - 28.5 1005.3 -
07/02:00pm SE 21 24 - - - - - - - 28.6 1005.7 -
07/01:30pm SE 22 24 - - - - - - - 28.6 1005.9 -
07/01:00pm SE 22 25 - - - - - - - 28.6 1006.3 -
07/12:30pm SE 21 25 - - - - - - - 28.6 1006.5 -
07/12:00pm SE 22 25 - - - - - - - 28.7 1006.7 -
07/11:30am SE 21 25 - - - - - - - 28.5 1006.8 -
07/11:00am ESE 21 24 - - - - - - - 28.6 1007.3 -
07/10:30am ESE 20 23 - - - - - - - 28.4 1007.4 -
07/10:00am SE 20 23 - - - - - - - 28.4 1007.6 -
07/09:30am ESE 19 23 - - - - - - - 28.4 1007.7 -
07/09:00am SE 19 22 - - - - - - - 28.5 1007.7 -
07/08:30am ESE 20 22 - - - - - - - 28.3 1007.5 -
07/08:00am ESE 16 19 - - - - - - - 28.1 1007.3 -
07/07:30am ESE 18 21 - - - - - - - 28.3 1007.0 -
07/07:00am ESE 18 21 - - - - - - - 28.2 1007.0 -
07/06:30am ESE 19 22 - - - - - - - 28.1 1006.7 -
07/06:00am ESE 21 25 - - - - - - - 28.0 1006.5 -
07/05:30am SE 20 23 - - - - - - - 27.7 1006.3 -
07/05:00am ESE 19 21 - - - - - - - 28.0 1006.2 -
07/04:30am ESE 17 19 - - - - - - - 26.9 1005.9 -
07/04:00am SE 19 26 - - - - - - - 27.5 1005.9 -
07/03:30am SE 20 22 - - - - - - - 28.0 1005.9 -
07/03:00am ESE 19 21 - - - - - - - 28.2 1006.1 -
07/02:30am SE 19 21 - - - - - - - 28.2 1006.3 -
07/02:00am ESE 18 20 - - - - - - - 28.3 1006.7 -
07/01:30am ESE 20 22 - - - - - - - 28.3 1007.0 -
07/01:00am ESE 19 23 - - - - - - - 28.3 1007.3 -
07/12:30am ESE 20 23 - - - - - - - 28.4 1007.6 -
07/12:00am ESE 20 23 - - - - - - - 28.4 1008.0 -
 
Date/Time
EST
Wind Sea
Height
m
Swell Vis
km
Cloud Weather Temp
°C
Press
MSL
hPa
Rain since
9am
mm
Dir  Spd
kts
Gust
kts
Height
m
Period
s
Dir
06/11:30pm ESE 20 24 - - - - - - - 28.4 1008.5 -
06/11:00pm ESE 19 23 - - - - - - - 28.4 1008.6 -
06/10:30pm ESE 19 21 - - - - - - - 28.4 1008.8 -
06/10:00pm ESE 19 22 - - - - - - - 28.6 1008.8 -
06/09:30pm ESE 20 24 - - - - - - - 28.5 1008.5 -
06/09:00pm ESE 19 24 - - - - - - - 28.5 1008.2 -
06/08:30pm ESE 19 22 - - - - - - - 28.4 1008.3 -
06/08:00pm ESE 19 22 - - - - - - - 28.5 1008.3 -
06/07:30pm ESE 18 21 - - - - - - - 28.6 1008.2 -
06/07:00pm ESE 18 21 - - - - - - - 28.6 1007.9 -
06/06:30pm ESE 18 20 - - - - - - - 28.7 1007.6 -
06/06:00pm ESE 17 19 - - - - - - - 28.7 1007.4 -
06/05:30pm ESE 17 19 - - - - - - - 28.8 1007.2 -
06/05:00pm ESE 16 18 - - - - - - - 28.7 1007.2 -
06/04:30pm SE 15 17 - - - - - - - 28.7 1007.2 -
06/04:00pm ESE 15 17 - - - - - - - 28.7 1007.4 -
06/03:30pm ESE 15 17 - - - - - - - 28.7 1007.6 -
06/03:00pm ESE 14 16 - - - - - - - 28.5 1007.7 -
06/02:30pm ESE 13 16 - - - - - - - 28.5 1007.8 -
06/02:00pm ESE 14 16 - - - - - - - 28.6 1008.2 -
06/01:30pm ESE 14 16 - - - - - - - 28.6 1008.7 -
06/01:00pm ESE 14 15 - - - - - - - 28.5 1008.8 -
06/12:30pm ESE 14 15 - - - - - - - 28.6 1008.9 -
06/12:00pm ESE 14 16 - - - - - - - 28.4 1009.1 -
06/11:30am ESE 14 15 - - - - - - - 28.4 1009.6 -
06/11:00am ESE 13 15 - - - - - - - 28.5 1009.9 -
06/10:30am ESE 13 15 - - - - - - - 28.5 1010.0 -
06/10:00am ESE 14 16 - - - - - - - 28.6 1010.1 -
06/09:30am ESE 14 16 - - - - - - - 28.6 1010.2 -
06/09:00am ESE 15 17 - - - - - - - 28.4 1010.1 -
06/08:30am ESE 14 17 - - - - - - - 28.6 1010.1 -
06/08:00am ESE 15 17 - - - - - - - 28.5 1010.1 -
06/07:30am E 12 15 - - - - - - - 28.0 1009.9 -
06/07:00am ESE 15 17 - - - - - - - 28.2 1009.7 -
06/06:30am E 13 18 - - - - - - - 28.0 1009.4 -
06/06:00am E 14 16 - - - - - - - 28.4 1008.9 -
06/05:30am E 15 17 - - - - - - - 28.3 1008.4 -
06/05:00am E 15 17 - - - - - - - 28.2 1008.0 -
06/04:30am E 14 16 - - - - - - - 28.0 1007.8 -
06/04:00am ESE 16 18 - - - - - - - 27.7 1007.6 -
06/03:30am ESE 17 20 - - - - - - - 28.0 1007.6 -
06/03:01am E 17 27 - - - - - - - 27.1 1007.4 -
06/03:00am E 16 19 - - - - - - - 27.0 1007.4 -
06/02:30am ESE 15 17 - - - - - - - 28.0 1007.6 -
06/02:00am ESE 17 19 - - - - - - - 28.0 1007.8 -
06/01:30am ESE 17 24 - - - - - - - 26.7 1008.2 -
06/01:00am SE 16 18 - - - - - - - 28.3 1008.6 -
06/12:30am SE 15 17 - - - - - - - 28.4 1008.9 -
06/12:00am SE 15 17 - - - - - - - 28.3 1009.1 -
 
Date/Time
EST
Wind Sea
Height
m
Swell Vis
km
Cloud Weather Temp
°C
Press
MSL
hPa
Rain since
9am
mm
Dir  Spd
kts
Gust
kts
Height
m
Period
s
Dir
05/11:30pm SE 15 17 - - - - - - - 28.3 1009.3 -
05/11:00pm ESE 15 18 - - - - - - - 28.3 1009.2 -
05/10:30pm ESE 14 16 - - - - - - - 28.4 1009.5 -
05/10:00pm ESE 16 17 - - - - - - - 28.5 1009.1 -
05/09:30pm ESE 16 19 - - - - - - - 28.4 1008.8 -
05/09:00pm E 16 18 - - - - - - - 28.5 1008.5 -
05/08:30pm E 17 20 - - - - - - - 28.6 1008.4 -
05/08:00pm E 16 18 - - - - - - - 28.7 1008.3 -
05/07:30pm E 14 16 - - - - - - - 28.7 1008.2 -
05/07:00pm E 14 16 - - - - - - - 28.7 1008.0 -
05/06:30pm E 14 16 - - - - - - - 28.6 1007.6 -
05/06:00pm E 15 17 - - - - - - - 28.8 1007.2 -
05/05:30pm ESE 16 18 - - - - - - - 28.8 1007.0 -
05/05:00pm E 14 17 - - - - - - - 28.8 1006.8 -

Other formats

Comma delimited format used in spreadsheet applications
http://www.bom.gov.au/fwo/IDQ60701/IDQ60701.94371.axf

JavaScript Object Notation format (JSON) in row-major order
http://www.bom.gov.au/fwo/IDQ60701/IDQ60701.94371.json

Data quality

Most of these data are generated automatically and are frequently updated. Quality checks on data are not normally performed. It is possible for incorrect values to appear. Refer to information at About Latest Weather Observations and please check the disclaimer before using these data.